Location: Hilton Head Island
(32.2163°N, 80.7526°W)
Time: 21:53:17
(UTC-04:00)

Vanguard 1 - Pass Details

Date: 21 February 2026
Orbit: 653 x 3818 km, 34.2° (Epoch: 13 March)

Event Time Altitude Azimuth Distance (km) Brightness Sun altitude
Rises 13:16:49 0° 224° (SW) 3,524 13.5 46.4°
Reaches altitude 10° 13:18:59 10° 218° (SW) 2,804 13.3 46.2°
Maximum altitude 13:25:31 48° 145° (SE) 1,819 12.5 45.9°
Drops below altitude 10° 13:37:11 10° 76° (ENE) 4,919 13.5 45.0°
Sets 13:42:20 0° 72° (ENE) 6,457 14.0 44.6°
